This is the latest recevied weather packets stored in our database for station/object K0SDS. If no packets are shown the sender has not sent any weather packets the latest 10 day(s).
| Time | Temp. | Humidity | Pressure | Rain* | Wind** | Luminosity | Snow |
|---|---|---|---|---|---|---|---|
| 1777623426 | 3.33° C | 90% | 1018.8 hPa | 0 mm | - | 0 W/m² | - |
| 1777623123 | 3.33° C | 90% | 1018.9 hPa | 0 mm | - | 0 W/m² | - |
| 1777622821 | 3.33° C | 90% | 1018.9 hPa | 0 mm | - | 0 W/m² | - |
| 1777622517 | 3.89° C | 90% | 1019 hPa | 0 mm | - | 0 W/m² | - |
| 1777622214 | 3.33° C | 89% | 1018.9 hPa | 0 mm | - | 0 W/m² | - |
| 1777621910 | 3.33° C | 89% | 1019 hPa | 0 mm | - | 0 W/m² | - |
| 1777621605 | 3.33° C | 88% | 1019.1 hPa | 0 mm | - | 0 W/m² | - |
| 1777621302 | 3.89° C | 87% | 1019.2 hPa | 0 mm | - | 0 W/m² | - |
| 1777620998 | 3.89° C | 87% | 1019 hPa | 0 mm | - | 0 W/m² | - |
| 1777620694 | 4.44° C | 86% | 1019.6 hPa | 0 mm | - | 0 W/m² | - |
| 1777620390 | 4.44° C | 85% | 1019.4 hPa | 0 mm | - | 0 W/m² | - |
| 1777620088 | 4.44° C | 83% | 1019.4 hPa | 0 mm | - | 0 W/m² | - |
| 1777619783 | 5° C | 83% | 1019.1 hPa | 0 mm | - | 0 W/m² | - |
| 1777619479 | 5° C | 81% | 1019.6 hPa | 0 mm | - | 0 W/m² | - |
| 1777619174 | 5.56° C | 80% | 1019.5 hPa | 0 mm | - | 0 W/m² | - |
| 1777618869 | 6.11° C | 80% | 1019.5 hPa | 0 mm | - | 0 W/m² | - |
| 1777618569 | 6.11° C | 78% | 1019.4 hPa | 0 mm | - | 0 W/m² | - |
| 1777618265 | 6.67° C | 78% | 1019.7 hPa | 0 mm | - | 0 W/m² | - |
| 1777617962 | 6.67° C | 77% | 1019.7 hPa | 0 mm | - | 0 W/m² | - |
| 1777617658 | 7.22° C | 77% | 1019.4 hPa | 0 mm | - | 0 W/m² | - |
| 1777617353 | 7.22° C | 75% | 1019.6 hPa | 0 mm | - | 0 W/m² | - |
| 1777617052 | 7.22° C | 75% | 1019.8 hPa | 0 mm | - | 0 W/m² | - |
| 1777616751 | 7.22° C | 75% | 1019.5 hPa | 0 mm | - | 0 W/m² | - |
| 1777616446 | 7.22° C | 75% | 1019.7 hPa | 0 mm | - | 0 W/m² | - |
| 1777616143 | 7.78° C | 75% | 1019.5 hPa | 0 mm | - | 0 W/m² | - |
* Rain latest hour (hover to see other rain measurements)
** Current wind speed in m/s (hover to see current wind gust speed)